Regional Weather Roundup
Issued by NWS Newport/Morehead, NC

Current Version | Previous Version | Text Only | Print | Product List | Glossary Off
Versions: 1 2 3 4 5 6 7 8 9 10 11 12 13 14 15 16 17 18 19 20 21 22 23 24 25 26 27 28 29 30 31 32 33 34 35 36 37 38 39 40 41 42 43 44 45 46 47 48 49 50

000
ASUS42 KMHX 300525
RWRMHX
WEATHER ROUNDUP FOR EASTERN NORTH CAROLINA
NATIONAL WEATHER SERVICE NEWPORT/MOREHEAD CITY NC
100 AM EDT SAT JUL 30 2016

NOTE: "FAIR" INDICATES FEW OR NO CLOUDS BELOW 12,000 FEET
WITH NO SIGNIFICANT WEATHER AND/OR OBSTRUCTIONS TO VISIBILITY

NCZ015>017-031-032-045>047-102-103-300600-
NORTH COAST

CITY           SKY/WX    TMP DP  RH WIND       PRES   REMARKS
EDENTON        CLEAR    N/A N/A N/A CALM      29.96R
ELIZABETH CITY CLEAR     78  73  84 SE3       29.95F
KITTY HAWK     CLEAR     77  77 100 CALM      29.94S
MANTEO           N/A     77  76  98 CALM      29.95F

$$

NCZ045>047-081-094-103-104-300600-
CENTRAL COAST

CITY           SKY/WX    TMP DP  RH WIND       PRES   REMARKS
FRISCO         CLEAR     79  75  87 CALM      29.95S

$$

NCZ095-097-098-100-101-300600-
SOUTHERN COAST

CITY           SKY/WX    TMP DP  RH WIND       PRES   REMARKS
BEAUFORT       CLOUDY    83  81  94 CALM      29.95S
CEDAR ISLAND   NOT AVBL
JACKSONVILLE   CLEAR     79  75  87 SW3       29.94F
PINEY ISLAND   NOT AVBL
WILMINGTON     PTCLDY    82  78  88 S3        29.95S


$$

NCZ011>013-027>030-043-044-078>080-089-090>093-098-300600-
COASTAL PLAIN

CITY           SKY/WX    TMP DP  RH WIND       PRES   REMARKS
AHOSKIE        CLEAR     73  72  98 CALM      29.95F
CLINTON        PTCLDY    78  75  90 CALM      29.95S
ELIZABETHTOWN  CLOUDY    82  76  82 CALM      29.96R
GOLDSBORO      CLEAR     78  76  93 CALM      29.94S
GREENVILLE     CLEAR     77  75  94 CALM      29.97S
HAVELOCK       CLEAR     80  77  90 CALM      29.96S
KENANSVILLE    NOT AVBL
KINSTON        CLEAR     75  73  93 CALM      29.96S
NEW BERN       CLEAR     78  75  90 CALM      29.96S
RICHLANDS      CLEAR     76  74  93 CALM      29.95F
ROCKY MOUNT    CLEAR     74  74 100 CALM      29.96S
WASHINGTON     CLEAR     77  75  93 CALM      29.95S
WHITEVILLE     CLOUDY    80  76  90 CALM      29.94F

$$

AMZ130-135-150-152-154-156-158-170-250-252-270-ANZ085-086-088-633-658-670-300600-
MARINE OBSERVATIONS

STATION/POSITION TIME  TEMP    WIND        PRES    WAVE   SWELL
                       AIR SEA DIR/SP/G            HT/PER HT/PER
                 (UTC) (F)     (DEG/KT/KT) (MB)    (FT/S) (FT/S)
CHESAPEAKE LIGHT NOT AVBL
64 E VA BEACH    0450   81 83   60/  2/  4 1013.8    3/ 5   2/ 5
DUCK             0500   79 73  120/  2/  2 1013.4
2 E DUCK         0511      78                N/A     1/13
OREGON INLET     0500   78 75   20/  2/  2 1013.9
13E OREGON INLT  0500      78                N/A     2/ 6   2/ 6
HATTERAS CG      0500   80 84  160/  3/  3 1013.6
DIAMOND BUOY     0450   84 85  250/  4/  6 1014.0    3/ 5   3/ 5
CAPE LOOKOUT     0500   83     260/  9/ 11 1013.8
BEAUFORT LAB     0500   83 83  240/  1/  2 1013.4
30 SE NEW RVR IN 0508   85 85  240/ 12/ 16 1014.0
30 SE NEW RVR IN 0425      85                N/A     4/ 6
27 SE WRIGHTSVLE 0508   85 84  230/ 12/ 16 1014.4
5 SE WRIGHTSVLE  0508   81 80  220/  4/  8 1014.8
225 S CAPE HAT   0450   84 85  220/ 10/ 10 1016.3    4/ 7   3/ 7
41 SE CHARLESTON 0450   86 86  220/ 17/ 19 1014.3    3/ 5   2/ 8

$$



USA.gov is the U.S. government's official web portal to all federal, state and local government web resources and services.